Погода в Мануэле-Антонио

Коста-Рика     9°24′37″N   84°09′17″W
темп.,
°C
ветер,
м/с
пор.,
м/с
влажн.,
%
обл.,
%
осадки,
мм/ч
давл.,
гПа
погр.,
м
24 октября, вс
вс2400:00+24в229336 2.1 101196
03:00+24в229168 0.2 1010137
06:00+24всв229012 0.9 1012118
09:00+27ююв238029 3.6 1013365
12:00+28ююв337623 7.8 1012768
15:00+27ююв238080 4.2 1010531
18:00+24в129196 10.6 1012175
21:00+24вюв229598 2.7 1014140
25 октября, пн
пн2500:00+24в119317 3.7 101382
03:00+23в119152 0.0 101282
06:00+24всв118867 0.0 101490
09:00+27ююв22769 0.0 1015563
12:00+28ю327691 0.5 1012760
15:00+26ю2283100 3.0 1011494
18:00+25в1188100 4.4 1012116
21:00+24всв119019 0.8 101433
26 октября, вт
вт2600:00+24всв1190100 1.5 101351
03:00+24всв119099 0.4 101257
06:00+24всв118649 0.9 101369
09:00+27ююв2276100 0.0 1014625
12:00+28ю327553 0.1 1012702
15:00+27ю227884 1.4 1010698
18:00+25ююв018692 2.1 1011128
21:00+25в118940 0.1 1012107
27 октября, ср
ср2700:00+24св119022 0.1 101157
03:00+23св118811 1.0 101053
06:00+23св228393 1.0 101276
09:00+28ю116813 0.0 1013582
12:00+28ююз327123 0.1 1011800
15:00+27ююз227833 0.6 1009562
18:00+25в118812 2.5 1011114
21:00+24всв1190100 1.2 101320
28 октября, чт
чт2800:00+24в1189100 3.2 101230
03:00+24всв11908 0.3 101174
06:00+24всв118989 0.4 101381
09:00+27ююв117449 0.0 1014652
12:00+27ю327574 0.7 1012734
15:00+26ю2281100 1.8 1011533
18:00+24в0089100 4.2 101238
21:00+24св1190100 0.2 101376